Location: Bieg
(49.3499°N, 10.3835°E)
Time: 00:01:37
(UTC+00:00)

Cosmos 2322 Rocket - Pass Details

Date: 23 May 2024
Orbit: 832 x 850 km, 71.0° (Epoch: 12 June)

Event Time Altitude Azimuth Distance (km) Brightness Sun altitude
Rises 02:35:36 0° 323° (NW) 3,402 5.4 -7.1°
Reaches altitude 10° 02:38:25 10° 311° (NW) 2,466 4.6 -6.8°
Maximum altitude 02:42:58 26° 257° (WSW) 1,618 3.2 -6.2°
Drops below altitude 10° 02:47:31 10° 203° (SSW) 2,461 4.1 -5.7°
Sets 02:50:19 0° 191° (S) 3,394 4.9 -5.3°
